Time,TemperatureF,DewpointF,PressureIn,WindDirection,WindDirectionDegrees,WindSpeedMPH,WindSpeedGustMPH,Humidity,HourlyPrecipIn,Conditions,Clouds,dailyrainin,SoftwareType,DateUTC
2013-05-26 00:01:00,55.2,37.4,30.21,ENE,57,0.0,0.0,51,0.00,,,0.00,meteohub,2013-05-26 04:01:00,
2013-05-26 00:02:00,55.2,37.4,30.21,ENE,57,0.0,0.0,51,0.00,,,0.00,meteohub,2013-05-26 04:02:00,
2013-05-26 00:03:00,55.2,37.4,30.21,ENE,57,0.0,0.0,51,0.00,,,0.00,meteohub,2013-05-26 04:03:00,
2013-05-26 00:08:00,55.0,38.3,30.21,ENE,57,0.0,0.0,53,0.00,,,0.00,meteohub,2013-05-26 04:08:00,
2013-05-26 00:13:00,55.0,37.8,30.21,ENE,57,0.0,0.0,52,0.00,,,0.00,meteohub,2013-05-26 04:13:00,
2013-05-26 00:18:00,54.9,37.6,30.21,ENE,57,0.0,0.0,52,0.00,,,0.00,meteohub,2013-05-26 04:18:00,
2013-05-26 00:24:00,54.9,38.1,30.21,ENE,57,0.0,0.0,53,0.00,,,0.00,meteohub,2013-05-26 04:24:00,
2013-05-26 00:29:00,54.9,38.5,30.21,ENE,57,0.0,0.0,54,0.00,,,0.00,meteohub,2013-05-26 04:29:00,
2013-05-26 00:34:00,54.7,38.3,30.21,ENE,57,0.0,0.0,54,0.00,,,0.00,meteohub,2013-05-26 04:34:00,
2013-05-26 00:39:00,54.5,38.1,30.22,ENE,57,0.0,0.0,54,0.00,,,0.00,meteohub,2013-05-26 04:39:00,
2013-05-26 00:45:00,54.3,37.9,30.22,ENE,57,0.0,0.0,54,0.00,,,0.00,meteohub,2013-05-26 04:45:00,
2013-05-26 00:50:00,54.3,41.2,30.22,ENE,57,0.0,0.0,61,0.00,,,0.00,meteohub,2013-05-26 04:50:00,
2013-05-26 00:55:00,54.1,42.6,30.22,ENE,57,0.0,0.0,65,0.00,,,0.00,meteohub,2013-05-26 04:55:00,
2013-05-26 01:00:00,54.0,41.2,30.22,ENE,57,0.0,0.0,62,0.00,,,0.00,meteohub,2013-05-26 05:00:00,
2013-05-26 01:05:00,53.8,41.9,30.22,ENE,57,0.0,0.0,64,0.00,,,0.00,meteohub,2013-05-26 05:05:00,
2013-05-26 01:11:00,53.6,42.1,30.22,ENE,57,0.0,0.0,65,0.00,,,0.00,meteohub,2013-05-26 05:11:00,
2013-05-26 01:16:00,53.2,40.6,30.22,ENE,57,0.0,0.0,62,0.00,,,0.00,meteohub,2013-05-26 05:16:00,
2013-05-26 01:21:00,53.1,40.5,30.22,ENE,57,0.0,0.0,62,0.00,,,0.00,meteohub,2013-05-26 05:21:00,
2013-05-26 01:26:00,53.1,39.9,30.22,North,5,2.0,0.0,61,0.00,,,0.00,meteohub,2013-05-26 05:26:00,
2013-05-26 01:31:00,53.1,41.2,30.22,North,5,0.0,2.0,64,0.00,,,0.00,meteohub,2013-05-26 05:31:00,
2013-05-26 01:37:00,52.9,41.4,30.22,North,5,0.0,2.0,65,0.00,,,0.00,meteohub,2013-05-26 05:37:00,
2013-05-26 01:42:00,52.9,41.9,30.22,North,5,0.0,2.0,66,0.00,,,0.00,meteohub,2013-05-26 05:42:00,
2013-05-26 01:47:00,52.7,41.2,30.22,North,350,1.0,1.0,65,0.00,,,0.00,meteohub,2013-05-26 05:47:00,
2013-05-26 01:52:00,52.5,42.3,30.22,North,350,0.0,2.0,68,0.00,,,0.00,meteohub,2013-05-26 05:52:00,
2013-05-26 01:57:00,52.5,42.3,30.22,North,350,0.0,2.0,68,0.00,,,0.00,meteohub,2013-05-26 05:57:00,
2013-05-26 02:02:00,52.3,42.8,30.22,North,350,2.0,2.0,70,0.00,,,0.00,meteohub,2013-05-26 06:02:00,
2013-05-26 02:07:00,52.2,41.2,30.22,NNW,343,0.0,2.0,66,0.00,,,0.00,meteohub,2013-05-26 06:07:00,
2013-05-26 02:12:00,52.2,41.9,30.22,NNW,343,0.0,2.0,68,0.00,,,0.00,meteohub,2013-05-26 06:12:00,
2013-05-26 02:17:00,52.0,42.1,30.22,NNW,343,0.0,2.0,69,0.00,,,0.00,meteohub,2013-05-26 06:17:00,
2013-05-26 02:22:00,52.0,42.8,30.22,NNW,343,0.0,1.0,71,0.00,,,0.00,meteohub,2013-05-26 06:22:00,
2013-05-26 02:27:00,51.8,41.5,30.22,NNW,343,0.0,0.0,68,0.00,,,0.00,meteohub,2013-05-26 06:27:00,
2013-05-26 02:32:00,51.6,40.3,30.21,NNW,342,2.0,0.0,65,0.00,,,0.00,meteohub,2013-05-26 06:32:00,
2013-05-26 02:37:00,51.6,40.6,30.22,NNW,338,0.0,3.0,66,0.00,,,0.00,meteohub,2013-05-26 06:37:00,
2013-05-26 02:42:00,51.6,40.6,30.22,NNW,338,1.0,3.0,66,0.00,,,0.00,meteohub,2013-05-26 06:42:00,
2013-05-26 02:47:00,51.8,40.5,30.22,NNW,336,1.0,3.0,65,0.00,,,0.00,meteohub,2013-05-26 06:47:00,
2013-05-26 02:52:00,51.6,40.3,30.22,NNW,329,1.0,2.0,65,0.00,,,0.00,meteohub,2013-05-26 06:52:00,
2013-05-26 02:57:00,51.6,39.9,30.22,NNW,329,2.0,2.0,64,0.00,,,0.00,meteohub,2013-05-26 06:57:00,
2013-05-26 03:02:00,51.4,39.7,30.21,NNW,329,1.0,3.0,64,0.00,,,0.00,meteohub,2013-05-26 07:02:00,
2013-05-26 03:07:00,51.4,40.1,30.21,NNW,329,0.0,3.0,65,0.00,,,0.00,meteohub,2013-05-26 07:07:00,
2013-05-26 03:12:00,51.4,40.1,30.21,NNW,329,0.0,3.0,65,0.00,,,0.00,meteohub,2013-05-26 07:12:00,
2013-05-26 03:17:00,51.3,39.9,30.21,NNW,329,2.0,2.0,65,0.00,,,0.00,meteohub,2013-05-26 07:17:00,
2013-05-26 03:22:00,51.3,39.9,30.21,NNW,329,1.0,2.0,65,0.00,,,0.00,meteohub,2013-05-26 07:22:00,
2013-05-26 03:27:00,51.1,39.7,30.21,NNW,329,2.0,2.0,65,0.00,,,0.00,meteohub,2013-05-26 07:27:00,
2013-05-26 03:32:00,51.1,39.4,30.21,NNW,329,3.0,3.0,64,0.00,,,0.00,meteohub,2013-05-26 07:32:00,
2013-05-26 03:37:00,51.1,39.7,30.21,NNW,329,2.0,3.0,65,0.00,,,0.00,meteohub,2013-05-26 07:37:00,
2013-05-26 03:42:00,50.9,39.6,30.21,NNW,329,0.0,3.0,65,0.00,,,0.00,meteohub,2013-05-26 07:42:00,
2013-05-26 03:47:00,50.9,39.9,30.21,NNW,329,3.0,3.0,66,0.00,,,0.00,meteohub,2013-05-26 07:47:00,
2013-05-26 03:52:00,50.7,39.4,30.21,NNW,329,1.0,3.0,65,0.00,,,0.00,meteohub,2013-05-26 07:52:00,
2013-05-26 03:57:00,50.5,39.9,30.21,NNW,329,2.0,3.0,67,0.00,,,0.00,meteohub,2013-05-26 07:57:00,
2013-05-26 04:02:00,50.5,39.9,30.21,NNW,329,2.0,3.0,67,0.00,,,0.00,meteohub,2013-05-26 08:02:00,
2013-05-26 04:07:00,50.5,39.9,30.21,NNW,329,1.0,3.0,67,0.00,,,0.00,meteohub,2013-05-26 08:07:00,
2013-05-26 04:12:00,50.4,40.3,30.21,NNW,329,2.0,3.0,68,0.00,,,0.00,meteohub,2013-05-26 08:12:00,
2013-05-26 04:17:00,50.4,40.3,30.20,NNW,329,1.0,3.0,68,0.00,,,0.00,meteohub,2013-05-26 08:17:00,
2013-05-26 04:22:00,50.2,40.5,30.21,NNW,329,0.0,3.0,69,0.00,,,0.00,meteohub,2013-05-26 08:22:00,
2013-05-26 04:27:00,49.8,40.1,30.20,NNW,329,1.0,3.0,69,0.00,,,0.00,meteohub,2013-05-26 08:27:00,
2013-05-26 04:32:00,49.8,40.5,30.21,NNW,329,0.0,2.0,70,0.00,,,0.00,meteohub,2013-05-26 08:32:00,
2013-05-26 04:37:00,49.8,40.5,30.21,NNW,329,0.0,2.0,70,0.00,,,0.00,meteohub,2013-05-26 08:37:00,
2013-05-26 04:42:00,49.6,40.3,30.21,NNW,329,0.0,2.0,70,0.00,,,0.00,meteohub,2013-05-26 08:42:00,
2013-05-26 04:47:00,49.5,40.8,30.21,NNW,329,0.0,0.0,72,0.00,,,0.00,meteohub,2013-05-26 08:47:00,
2013-05-26 04:52:00,49.3,40.6,30.21,NNW,329,0.0,0.0,72,0.00,,,0.00,meteohub,2013-05-26 08:52:00,
2013-05-26 04:57:00,49.3,40.6,30.22,NNW,329,0.0,0.0,72,0.00,,,0.00,meteohub,2013-05-26 08:57:00,
2013-05-26 05:02:00,49.3,40.6,30.22,NNW,329,0.0,0.0,72,0.00,,,0.00,meteohub,2013-05-26 09:02:00,
2013-05-26 05:07:00,49.3,40.6,30.22,NNW,329,0.0,0.0,72,0.00,,,0.00,meteohub,2013-05-26 09:07:00,
2013-05-26 05:12:00,49.1,40.1,30.22,NNW,329,0.0,0.0,71,0.00,,,0.00,meteohub,2013-05-26 09:12:00,
2013-05-26 05:17:00,48.9,40.6,30.22,NNW,329,0.0,0.0,73,0.00,,,0.00,meteohub,2013-05-26 09:17:00,
2013-05-26 05:22:00,49.1,40.8,30.23,NNW,329,0.0,1.0,73,0.00,,,0.00,meteohub,2013-05-26 09:22:00,
2013-05-26 05:27:00,49.1,41.2,30.23,NNW,329,0.0,1.0,74,0.00,,,0.00,meteohub,2013-05-26 09:27:00,
2013-05-26 05:32:00,49.1,41.2,30.23,NNW,329,0.0,1.0,74,0.00,,,0.00,meteohub,2013-05-26 09:32:00,
2013-05-26 05:37:00,49.3,41.4,30.22,NNW,329,1.0,0.0,74,0.00,,,0.00,meteohub,2013-05-26 09:37:00,
2013-05-26 05:42:00,49.5,41.2,30.23,NNW,329,2.0,2.0,73,0.00,,,0.00,meteohub,2013-05-26 09:42:00,
2013-05-26 05:47:00,49.5,41.2,30.24,NNW,329,2.0,3.0,73,0.00,,,0.00,meteohub,2013-05-26 09:47:00,
2013-05-26 05:52:00,49.6,41.4,30.24,NNW,329,1.0,3.0,73,0.00,,,0.00,meteohub,2013-05-26 09:52:00,
2013-05-26 05:57:00,49.6,41.0,30.24,NNW,329,1.0,3.0,72,0.00,,,0.00,meteohub,2013-05-26 09:57:00,
2013-05-26 06:02:00,49.6,41.0,30.24,NNW,329,2.0,3.0,72,0.00,,,0.00,meteohub,2013-05-26 10:02:00,
2013-05-26 06:07:00,49.8,40.8,30.24,NNW,329,1.0,2.0,71,0.00,,,0.00,meteohub,2013-05-26 10:07:00,
2013-05-26 06:12:00,49.8,40.8,30.24,NNW,329,0.0,2.0,71,0.00,,,0.00,meteohub,2013-05-26 10:12:00,
2013-05-26 06:17:00,50.0,41.0,30.24,NNW,327,1.0,2.0,71,0.00,,,0.00,meteohub,2013-05-26 10:17:00,
2013-05-26 06:22:00,50.0,41.0,30.24,NNW,327,0.0,2.0,71,0.00,,,0.00,meteohub,2013-05-26 10:22:00,
2013-05-26 06:27:00,50.2,41.2,30.24,NNW,327,0.0,2.0,71,0.00,,,0.00,meteohub,2013-05-26 10:27:00,
2013-05-26 06:32:00,50.2,41.5,30.25,NNW,327,0.0,2.0,72,0.00,,,0.00,meteohub,2013-05-26 10:32:00,
2013-05-26 06:37:00,50.2,41.2,30.25,NNW,327,0.0,0.0,71,0.00,,,0.00,meteohub,2013-05-26 10:37:00,
2013-05-26 06:42:00,50.4,41.7,30.25,NNW,327,0.0,0.0,72,0.00,,,0.00,meteohub,2013-05-26 10:42:00,
2013-05-26 06:47:00,50.5,41.5,30.25,NNW,327,0.0,0.0,71,0.00,,,0.00,meteohub,2013-05-26 10:47:00,
2013-05-26 06:52:00,50.5,41.5,30.25,NNW,327,0.0,0.0,71,0.00,,,0.00,meteohub,2013-05-26 10:52:00,
2013-05-26 06:57:00,50.7,42.1,30.25,NNW,327,0.0,0.0,72,0.00,,,0.00,meteohub,2013-05-26 10:57:00,
2013-05-26 07:02:00,50.7,42.4,30.26,NNW,327,0.0,0.0,73,0.00,,,0.00,meteohub,2013-05-26 11:02:00,
2013-05-26 07:07:00,51.1,43.2,30.25,NNW,327,1.0,0.0,74,0.00,,,0.00,meteohub,2013-05-26 11:07:00,
2013-05-26 07:12:00,51.1,42.8,30.25,NNW,327,1.0,3.0,73,0.00,,,0.00,meteohub,2013-05-26 11:12:00,
2013-05-26 07:17:00,51.3,42.6,30.26,NNW,327,0.0,3.0,72,0.00,,,0.00,meteohub,2013-05-26 11:17:00,
2013-05-26 07:22:00,51.3,42.3,30.26,NNW,327,0.0,2.0,71,0.00,,,0.00,meteohub,2013-05-26 11:22:00,
2013-05-26 07:27:00,51.3,42.3,30.26,NNW,327,0.0,2.0,71,0.00,,,0.00,meteohub,2013-05-26 11:27:00,
2013-05-26 07:32:00,51.4,42.8,30.27,NNW,327,0.0,1.0,72,0.00,,,0.00,meteohub,2013-05-26 11:32:00,
2013-05-26 07:37:00,51.6,43.3,30.27,NNW,327,0.0,0.0,73,0.00,,,0.00,meteohub,2013-05-26 11:37:00,
2013-05-26 07:42:00,51.6,43.3,30.27,NNW,327,0.0,0.0,73,0.00,,,0.00,meteohub,2013-05-26 11:42:00,
2013-05-26 07:47:00,52.0,43.2,30.27,NNW,327,0.0,0.0,72,0.00,,,0.00,meteohub,2013-05-26 11:47:00,
2013-05-26 07:52:00,52.2,43.7,30.27,NNW,327,2.0,0.0,73,0.00,,,0.00,meteohub,2013-05-26 11:52:00,
2013-05-26 07:57:00,52.3,43.5,30.27,NNW,327,2.0,2.0,72,0.00,,,0.00,meteohub,2013-05-26 11:57:00,
2013-05-26 08:02:00,52.7,43.5,30.27,NNW,327,1.0,2.0,71,0.00,,,0.00,meteohub,2013-05-26 12:02:00,
2013-05-26 08:07:00,52.9,43.3,30.27,NNW,327,2.0,2.0,70,0.00,,,0.00,meteohub,2013-05-26 12:07:00,
2013-05-26 08:12:00,53.1,44.2,30.27,NNW,327,1.0,2.0,72,0.00,,,0.00,meteohub,2013-05-26 12:12:00,
2013-05-26 08:17:00,53.1,43.9,30.27,NNW,327,0.0,2.0,71,0.00,,,0.00,meteohub,2013-05-26 12:17:00,
2013-05-26 08:22:00,53.2,44.4,30.27,NNW,327,0.0,2.0,72,0.00,,,0.00,meteohub,2013-05-26 12:22:00,
2013-05-26 08:27:00,53.2,44.1,30.27,NNW,327,0.0,2.0,71,0.00,,,0.00,meteohub,2013-05-26 12:27:00,
2013-05-26 08:32:00,53.2,44.1,30.27,NNW,327,0.0,2.0,71,0.00,,,0.00,meteohub,2013-05-26 12:32:00,
2013-05-26 08:37:00,53.4,45.0,30.27,NNW,327,0.0,0.0,73,0.00,,,0.00,meteohub,2013-05-26 12:37:00,
2013-05-26 08:42:00,53.6,44.4,30.27,NNW,327,0.0,0.0,71,0.00,,,0.00,meteohub,2013-05-26 12:42:00,
2013-05-26 08:47:00,53.6,44.4,30.27,NNW,327,0.0,0.0,71,0.00,,,0.00,meteohub,2013-05-26 12:47:00,
2013-05-26 08:52:00,53.8,44.6,30.27,NNW,327,0.0,0.0,71,0.00,,,0.00,meteohub,2013-05-26 12:52:00,
2013-05-26 08:57:00,54.0,45.1,30.27,NW,311,0.0,0.0,72,0.00,,,0.00,meteohub,2013-05-26 12:57:00,
2013-05-26 09:02:00,54.0,45.5,30.27,NW,311,1.0,2.0,73,0.00,,,0.00,meteohub,2013-05-26 13:02:00,
2013-05-26 09:07:00,54.1,45.7,30.27,NW,311,0.0,2.0,73,0.00,,,0.00,meteohub,2013-05-26 13:07:00,
2013-05-26 09:12:00,54.3,45.9,30.28,NW,311,0.0,2.0,73,0.00,,,0.00,meteohub,2013-05-26 13:12:00,
2013-05-26 09:17:00,54.7,45.1,30.28,NW,311,0.0,1.0,70,0.00,,,0.00,meteohub,2013-05-26 13:17:00,
2013-05-26 09:22:00,54.9,45.7,30.28,NW,311,0.0,0.0,71,0.00,,,0.00,meteohub,2013-05-26 13:22:00,
2013-05-26 09:27:00,55.2,46.0,30.28,NW,311,0.0,0.0,71,0.00,,,0.00,meteohub,2013-05-26 13:27:00,
2013-05-26 09:32:00,55.8,46.0,30.28,NW,311,0.0,0.0,70,0.00,,,0.00,meteohub,2013-05-26 13:32:00,
2013-05-26 09:37:00,56.1,45.7,30.28,NW,311,0.0,0.0,68,0.00,,,0.00,meteohub,2013-05-26 13:37:00,
2013-05-26 09:42:00,56.5,46.8,30.28,NW,311,0.0,0.0,70,0.00,,,0.00,meteohub,2013-05-26 13:42:00,
2013-05-26 09:47:00,56.8,46.0,30.28,NW,311,0.0,0.0,67,0.00,,,0.00,meteohub,2013-05-26 13:47:00,
2013-05-26 09:52:00,57.0,46.6,30.28,NW,311,0.0,0.0,68,0.00,,,0.00,meteohub,2013-05-26 13:52:00,
2013-05-26 09:57:00,57.4,46.0,30.28,NW,311,0.0,0.0,66,0.00,,,0.00,meteohub,2013-05-26 13:57:00,
2013-05-26 10:02:00,57.7,46.9,30.29,NW,311,0.0,0.0,67,0.00,,,0.00,meteohub,2013-05-26 14:02:00,
2013-05-26 10:07:00,57.9,46.2,30.29,NW,311,0.0,0.0,65,0.00,,,0.00,meteohub,2013-05-26 14:07:00,
2013-05-26 10:12:00,58.1,46.0,30.29,WNW,300,1.0,0.0,64,0.00,,,0.00,meteohub,2013-05-26 14:12:00,
2013-05-26 10:17:00,58.5,46.4,30.29,NW,314,0.0,2.0,64,0.00,,,0.00,meteohub,2013-05-26 14:17:00,
2013-05-26 10:22:00,59.0,46.8,30.29,NW,314,0.0,2.0,64,0.00,,,0.00,meteohub,2013-05-26 14:22:00,
2013-05-26 10:27:00,59.2,45.3,30.28,NW,314,1.0,2.0,60,0.00,,,0.00,meteohub,2013-05-26 14:27:00,
2013-05-26 10:32:00,59.5,45.7,30.28,NW,314,0.0,2.0,60,0.00,,,0.00,meteohub,2013-05-26 14:32:00,
2013-05-26 10:37:00,59.9,45.1,30.29,NW,314,0.0,2.0,58,0.00,,,0.00,meteohub,2013-05-26 14:37:00,
2013-05-26 10:42:00,60.1,45.3,30.29,NW,315,1.0,2.0,58,0.00,,,0.00,meteohub,2013-05-26 14:42:00,
2013-05-26 10:47:00,60.3,45.5,30.29,West,279,2.0,2.0,58,0.00,,,0.00,meteohub,2013-05-26 14:47:00,
2013-05-26 10:52:00,60.4,44.6,30.28,WNW,286,0.0,2.0,56,0.00,,,0.00,meteohub,2013-05-26 14:52:00,
2013-05-26 10:57:00,60.6,44.4,30.28,West,281,0.0,2.0,55,0.00,,,0.00,meteohub,2013-05-26 14:57:00,
2013-05-26 11:02:00,60.6,45.3,30.28,WNW,302,1.0,2.0,57,0.00,,,0.00,meteohub,2013-05-26 15:02:00,
2013-05-26 11:07:00,61.0,45.7,30.27,WNW,302,0.0,2.0,57,0.00,,,0.00,meteohub,2013-05-26 15:07:00,
2013-05-26 11:12:00,61.3,46.0,30.27,NNW,343,0.0,2.0,57,0.00,,,0.00,meteohub,2013-05-26 15:12:00,
2013-05-26 11:17:00,61.7,42.3,30.27,West,268,1.0,3.0,49,0.00,,,0.00,meteohub,2013-05-26 15:17:00,
2013-05-26 11:22:00,62.1,42.6,30.27,West,274,0.0,3.0,49,0.00,,,0.00,meteohub,2013-05-26 15:22:00,
2013-05-26 11:27:00,62.2,43.3,30.27,NW,324,3.0,3.0,50,0.00,,,0.00,meteohub,2013-05-26 15:27:00,
2013-05-26 11:32:00,62.2,42.3,30.27,NW,306,2.0,4.0,48,0.00,,,0.00,meteohub,2013-05-26 15:32:00,
2013-05-26 11:37:00,62.4,41.4,30.27,NW,321,1.0,4.0,46,0.00,,,0.00,meteohub,2013-05-26 15:37:00,
2013-05-26 11:42:00,62.4,41.9,30.26,NW,321,2.0,4.0,47,0.00,,,0.00,meteohub,2013-05-26 15:42:00,
2013-05-26 11:47:00,63.0,40.6,30.26,NNW,336,3.0,5.0,44,0.00,,,0.00,meteohub,2013-05-26 15:47:00,
2013-05-26 11:52:00,63.0,41.4,30.26,NNW,341,1.0,5.0,45,0.00,,,0.00,meteohub,2013-05-26 15:52:00,
2013-05-26 11:57:00,63.3,41.0,30.26,NW,321,0.0,5.0,44,0.00,,,0.00,meteohub,2013-05-26 15:57:00,
2013-05-26 12:02:00,63.3,41.5,30.26,WNW,296,1.0,4.0,45,0.00,,,0.00,meteohub,2013-05-26 16:02:00,
2013-05-26 12:07:00,63.7,41.9,30.26,NNW,346,0.0,3.0,45,0.00,,,0.00,meteohub,2013-05-26 16:07:00,
2013-05-26 12:12:00,63.9,41.5,30.25,North,0,0.0,3.0,44,0.00,,,0.00,meteohub,2013-05-26 16:12:00,
2013-05-26 12:17:00,64.0,42.3,30.25,North,0,0.0,2.0,45,0.00,,,0.00,meteohub,2013-05-26 16:17:00,
2013-05-26 12:22:00,64.8,41.7,30.25,NW,321,0.0,2.0,43,0.00,,,0.00,meteohub,2013-05-26 16:22:00,
2013-05-26 12:27:00,65.5,43.0,30.25,WSW,252,1.0,4.0,44,0.00,,,0.00,meteohub,2013-05-26 16:27:00,
2013-05-26 12:32:00,65.7,42.6,30.25,SW,229,2.0,4.0,43,0.00,,,0.00,meteohub,2013-05-26 16:32:00,
2013-05-26 12:37:00,65.8,42.8,30.25,SW,236,0.0,4.0,43,0.00,,,0.00,meteohub,2013-05-26 16:37:00,
2013-05-26 12:42:00,66.0,42.3,30.25,West,271,1.0,4.0,42,0.00,,,0.00,meteohub,2013-05-26 16:42:00,
2013-05-26 12:47:00,66.6,42.8,30.25,WSW,257,0.0,4.0,42,0.00,,,0.00,meteohub,2013-05-26 16:47:00,
2013-05-26 12:52:00,66.9,43.2,30.25,West,261,1.0,3.0,42,0.00,,,0.00,meteohub,2013-05-26 16:52:00,
2013-05-26 12:57:00,67.3,42.8,30.25,SW,234,1.0,3.0,41,0.00,,,0.00,meteohub,2013-05-26 16:57:00,
2013-05-26 13:02:00,67.5,42.3,30.25,SW,232,1.0,4.0,40,0.00,,,0.00,meteohub,2013-05-26 17:02:00,
2013-05-26 13:07:00,67.6,43.2,30.25,SSW,213,0.0,4.0,41,0.00,,,0.00,meteohub,2013-05-26 17:07:00,
2013-05-26 13:12:00,68.2,43.5,30.24,SSW,213,0.0,4.0,41,0.00,,,0.00,meteohub,2013-05-26 17:12:00,
2013-05-26 13:17:00,68.7,43.3,30.25,SW,228,2.0,3.0,40,0.00,,,0.00,meteohub,2013-05-26 17:17:00,
2013-05-26 13:22:00,69.3,43.9,30.24,NW,323,3.0,3.0,40,0.00,,,0.00,meteohub,2013-05-26 17:22:00,
2013-05-26 13:27:00,70.0,43.9,30.24,NW,322,3.0,3.0,39,0.00,,,0.00,meteohub,2013-05-26 17:27:00,
2013-05-26 13:32:00,69.6,42.8,30.24,SW,218,2.0,4.0,38,0.00,,,0.00,meteohub,2013-05-26 17:32:00,
2013-05-26 13:37:00,69.4,41.4,30.23,WNW,286,0.0,4.0,36,0.00,,,0.00,meteohub,2013-05-26 17:37:00,
2013-05-26 13:42:00,70.2,43.3,30.23,West,277,0.0,5.0,38,0.00,,,0.00,meteohub,2013-05-26 17:42:00,
2013-05-26 13:47:00,70.5,43.0,30.22,WNW,290,0.0,5.0,37,0.00,,,0.00,meteohub,2013-05-26 17:47:00,
2013-05-26 13:52:00,71.1,43.5,30.22,WSW,238,1.0,3.0,37,0.00,,,0.00,meteohub,2013-05-26 17:52:00,
2013-05-26 13:57:00,71.4,43.7,30.22,NNW,344,0.0,3.0,37,0.00,,,0.00,meteohub,2013-05-26 17:57:00,
2013-05-26 14:02:00,71.6,43.9,30.21,SSW,195,0.0,3.0,37,0.00,,,0.00,meteohub,2013-05-26 18:02:00,
2013-05-26 14:07:00,71.6,43.2,30.21,NNW,337,2.0,3.0,36,0.00,,,0.00,meteohub,2013-05-26 18:07:00,
2013-05-26 14:12:00,71.2,43.0,30.21,WNW,291,2.0,6.0,36,0.00,,,0.00,meteohub,2013-05-26 18:12:00,
2013-05-26 14:17:00,71.1,42.1,30.21,SW,228,3.0,6.0,35,0.00,,,0.00,meteohub,2013-05-26 18:17:00,
2013-05-26 14:22:00,70.7,41.0,30.21,SSW,192,0.0,6.0,34,0.00,,,0.00,meteohub,2013-05-26 18:22:00,
2013-05-26 14:27:00,70.7,43.2,30.21,WNW,292,2.0,4.0,37,0.00,,,0.00,meteohub,2013-05-26 18:27:00,
2013-05-26 14:32:00,70.7,41.7,30.21,SE,135,1.0,5.0,35,0.00,,,0.00,meteohub,2013-05-26 18:32:00,
2013-05-26 14:37:00,70.5,41.5,30.21,WSW,250,2.0,5.0,35,0.00,,,0.00,meteohub,2013-05-26 18:37:00,
2013-05-26 14:42:00,70.5,43.7,30.21,WSW,242,1.0,5.0,38,0.00,,,0.00,meteohub,2013-05-26 18:42:00,
2013-05-26 14:47:00,70.5,43.7,30.21,WNW,299,1.0,6.0,38,0.00,,,0.00,meteohub,2013-05-26 18:47:00,
2013-05-26 14:52:00,70.5,43.0,30.21,West,262,0.0,6.0,37,0.00,,,0.00,meteohub,2013-05-26 18:52:00,
2013-05-26 14:57:00,70.9,41.9,30.21,NNW,338,1.0,5.0,35,0.00,,,0.00,meteohub,2013-05-26 18:57:00,
2013-05-26 15:02:00,70.9,43.3,30.21,NNW,342,1.0,4.0,37,0.00,,,0.00,meteohub,2013-05-26 19:02:00,
2013-05-26 15:07:00,70.9,42.6,30.21,NW,311,4.0,4.0,36,0.00,,,0.00,meteohub,2013-05-26 19:07:00,
2013-05-26 15:12:00,70.7,41.7,30.21,NNW,341,0.0,5.0,35,0.00,,,0.00,meteohub,2013-05-26 19:12:00,
2013-05-26 15:17:00,70.7,41.7,30.21,NW,320,2.0,5.0,35,0.00,,,0.00,meteohub,2013-05-26 19:17:00,
2013-05-26 15:22:00,70.5,42.3,30.21,NW,318,3.0,5.0,36,0.00,,,0.00,meteohub,2013-05-26 19:22:00,
2013-05-26 15:27:00,70.9,43.3,30.20,NW,313,0.0,5.0,37,0.00,,,0.00,meteohub,2013-05-26 19:27:00,
2013-05-26 15:32:00,71.1,45.5,30.20,SSW,199,0.0,5.0,40,0.00,,,0.00,meteohub,2013-05-26 19:32:00,
2013-05-26 15:37:00,71.1,44.8,30.20,SE,128,0.0,5.0,39,0.00,,,0.00,meteohub,2013-05-26 19:37:00,
2013-05-26 15:42:00,71.4,45.1,30.20,SSW,206,0.0,5.0,39,0.00,,,0.00,meteohub,2013-05-26 19:42:00,
2013-05-26 15:47:00,71.6,46.6,30.19,NW,311,1.0,4.0,41,0.00,,,0.00,meteohub,2013-05-26 19:47:00,
2013-05-26 15:52:00,72.1,44.4,30.19,WSW,244,0.0,3.0,37,0.00,,,0.00,meteohub,2013-05-26 19:52:00,
2013-05-26 15:57:00,72.1,43.7,30.19,NW,319,1.0,4.0,36,0.00,,,0.00,meteohub,2013-05-26 19:57:00,
2013-05-26 16:02:00,72.1,45.9,30.19,NW,320,2.0,4.0,39,0.00,,,0.00,meteohub,2013-05-26 20:02:00,
2013-05-26 16:07:00,72.3,44.6,30.19,WNW,302,1.0,4.0,37,0.00,,,0.00,meteohub,2013-05-26 20:07:00,
2013-05-26 16:12:00,72.1,44.4,30.19,West,279,1.0,4.0,37,0.00,,,0.00,meteohub,2013-05-26 20:12:00,
2013-05-26 16:17:00,72.1,44.4,30.18,SE,132,1.0,4.0,37,0.00,,,0.00,meteohub,2013-05-26 20:17:00,
2013-05-26 16:22:00,72.1,43.7,30.18,WSW,242,1.0,4.0,36,0.00,,,0.00,meteohub,2013-05-26 20:22:00,
2013-05-26 16:27:00,72.1,45.9,30.18,WSW,238,0.0,5.0,39,0.00,,,0.00,meteohub,2013-05-26 20:27:00,
2013-05-26 16:32:00,72.3,46.6,30.19,WSW,238,2.0,5.0,40,0.00,,,0.00,meteohub,2013-05-26 20:32:00,
2013-05-26 16:37:00,72.3,43.9,30.18,NW,320,2.0,5.0,36,0.00,,,0.00,meteohub,2013-05-26 20:37:00,
2013-05-26 16:42:00,72.3,44.6,30.19,NW,315,2.0,4.0,37,0.00,,,0.00,meteohub,2013-05-26 20:42:00,
2013-05-26 16:47:00,72.3,44.6,30.19,WNW,288,1.0,4.0,37,0.00,,,0.00,meteohub,2013-05-26 20:47:00,
2013-05-26 16:52:00,72.9,45.1,30.19,NW,318,2.0,4.0,37,0.00,,,0.00,meteohub,2013-05-26 20:52:00,
2013-05-26 16:57:00,73.0,44.4,30.18,WSW,255,0.0,3.0,36,0.00,,,0.00,meteohub,2013-05-26 20:57:00,
2013-05-26 17:02:00,73.0,45.9,30.18,SW,234,1.0,3.0,38,0.00,,,0.00,meteohub,2013-05-26 21:02:00,
2013-05-26 17:07:00,73.0,43.7,30.18,SSW,203,0.0,3.0,35,0.00,,,0.00,meteohub,2013-05-26 21:07:00,
2013-05-26 17:12:00,73.0,44.4,30.18,West,269,0.0,3.0,36,0.00,,,0.00,meteohub,2013-05-26 21:12:00,
2013-05-26 17:17:00,73.0,45.1,30.18,West,264,0.0,3.0,37,0.00,,,0.00,meteohub,2013-05-26 21:17:00,
2013-05-26 17:22:00,73.0,43.7,30.18,WNW,294,0.0,2.0,35,0.00,,,0.00,meteohub,2013-05-26 21:22:00,
2013-05-26 17:27:00,73.0,43.7,30.18,WNW,294,0.0,2.0,35,0.00,,,0.00,meteohub,2013-05-26 21:27:00,
2013-05-26 17:32:00,73.0,43.7,30.18,WNW,294,1.0,2.0,35,0.00,,,0.00,meteohub,2013-05-26 21:32:00,
2013-05-26 17:37:00,73.0,43.0,30.18,NW,323,3.0,3.0,34,0.00,,,0.00,meteohub,2013-05-26 21:37:00,
2013-05-26 17:42:00,72.9,42.8,30.18,NW,308,1.0,5.0,34,0.00,,,0.00,meteohub,2013-05-26 21:42:00,
2013-05-26 17:47:00,72.9,44.4,30.18,WNW,288,0.0,5.0,36,0.00,,,0.00,meteohub,2013-05-26 21:47:00,
2013-05-26 17:52:00,73.0,45.9,30.18,WNW,288,0.0,5.0,38,0.00,,,0.00,meteohub,2013-05-26 21:52:00,
2013-05-26 17:57:00,73.0,49.3,30.18,WNW,288,0.0,2.0,43,0.00,,,0.00,meteohub,2013-05-26 21:57:00,
2013-05-26 18:02:00,73.0,45.9,30.18,WNW,288,0.0,1.0,38,0.00,,,0.00,meteohub,2013-05-26 22:02:00,
2013-05-26 18:07:00,73.0,48.0,30.18,WNW,288,0.0,1.0,41,0.00,,,0.00,meteohub,2013-05-26 22:07:00,
2013-05-26 18:12:00,73.0,46.6,30.18,WNW,288,0.0,0.0,39,0.00,,,0.00,meteohub,2013-05-26 22:12:00,
2013-05-26 18:17:00,73.2,46.0,30.19,WNW,288,0.0,0.0,38,0.00,,,0.00,meteohub,2013-05-26 22:17:00,
2013-05-26 18:22:00,73.2,46.0,30.18,WNW,288,0.0,0.0,38,0.00,,,0.00,meteohub,2013-05-26 22:22:00,
2013-05-26 18:27:00,73.0,45.9,30.18,WNW,288,0.0,0.0,38,0.00,,,0.00,meteohub,2013-05-26 22:27:00,
2013-05-26 18:32:00,72.9,47.1,30.18,WNW,288,0.0,1.0,40,0.00,,,0.00,meteohub,2013-05-26 22:32:00,
2013-05-26 18:37:00,72.7,46.9,30.19,WNW,288,0.0,1.0,40,0.00,,,0.00,meteohub,2013-05-26 22:37:00,
2013-05-26 18:42:00,72.5,47.5,30.19,WNW,288,0.0,0.0,41,0.00,,,0.00,meteohub,2013-05-26 22:42:00,
2013-05-26 18:47:00,72.3,46.6,30.19,WNW,288,0.0,0.0,40,0.00,,,0.00,meteohub,2013-05-26 22:47:00,
2013-05-26 18:52:00,72.1,46.4,30.18,WNW,288,0.0,0.0,40,0.00,,,0.00,meteohub,2013-05-26 22:52:00,
2013-05-26 18:57:00,72.0,46.4,30.19,WNW,288,0.0,0.0,40,0.00,,,0.00,meteohub,2013-05-26 22:57:00,
2013-05-26 19:02:00,71.8,46.8,30.19,WNW,288,0.0,0.0,41,0.00,,,0.00,meteohub,2013-05-26 23:02:00,
2013-05-26 19:07:00,71.6,46.6,30.19,WNW,288,0.0,0.0,41,0.00,,,0.00,meteohub,2013-05-26 23:07:00,
2013-05-26 19:12:00,71.2,49.5,30.19,WNW,288,0.0,0.0,46,0.00,,,0.00,meteohub,2013-05-26 23:12:00,
2013-05-26 19:17:00,71.1,49.8,30.19,WNW,288,0.0,0.0,47,0.00,,,0.00,meteohub,2013-05-26 23:17:00,
2013-05-26 19:22:00,70.7,47.7,30.19,WNW,288,0.0,0.0,44,0.00,,,0.00,meteohub,2013-05-26 23:22:00,
2013-05-26 19:27:00,70.3,47.5,30.19,WNW,288,0.0,0.0,44,0.00,,,0.00,meteohub,2013-05-26 23:27:00,
2013-05-26 19:32:00,70.2,48.9,30.19,WNW,288,0.0,0.0,47,0.00,,,0.00,meteohub,2013-05-26 23:32:00,
2013-05-26 19:37:00,70.0,49.5,30.19,WNW,288,0.0,0.0,48,0.00,,,0.00,meteohub,2013-05-26 23:37:00,
2013-05-26 19:42:00,69.4,47.1,30.19,WNW,288,0.0,0.0,45,0.00,,,0.00,meteohub,2013-05-26 23:42:00,
2013-05-26 19:47:00,69.3,47.7,30.19,WNW,288,0.0,0.0,46,0.00,,,0.00,meteohub,2013-05-26 23:47:00,
2013-05-26 19:52:00,68.7,45.3,30.19,WNW,288,0.0,0.0,43,0.00,,,0.00,meteohub,2013-05-26 23:52:00,
2013-05-26 19:57:00,68.4,46.2,30.19,WNW,288,0.0,0.0,45,0.00,,,0.00,meteohub,2013-05-26 23:57:00,
2013-05-26 20:02:00,68.0,48.7,30.19,WNW,288,0.0,0.0,50,0.00,,,0.00,meteohub,2013-05-27 00:02:00,
2013-05-26 20:07:00,67.6,48.4,30.19,WNW,288,0.0,0.0,50,0.00,,,0.00,meteohub,2013-05-27 00:07:00,
2013-05-26 20:12:00,67.5,49.3,30.19,WNW,288,0.0,0.0,52,0.00,,,0.00,meteohub,2013-05-27 00:12:00,
2013-05-26 20:17:00,67.1,49.5,30.19,WNW,288,0.0,0.0,53,0.00,,,0.00,meteohub,2013-05-27 00:17:00,
2013-05-26 20:22:00,66.7,47.5,30.19,WNW,288,0.0,0.0,50,0.00,,,0.00,meteohub,2013-05-27 00:22:00,
2013-05-26 20:27:00,66.6,46.8,30.19,WNW,288,0.0,0.0,49,0.00,,,0.00,meteohub,2013-05-27 00:27:00,
2013-05-26 20:32:00,66.0,46.8,30.19,WNW,288,0.0,0.0,50,0.00,,,0.00,meteohub,2013-05-27 00:32:00,
2013-05-26 20:37:00,65.8,46.2,30.20,WNW,288,0.0,0.0,49,0.00,,,0.00,meteohub,2013-05-27 00:37:00,
2013-05-26 20:42:00,65.7,43.7,30.20,WNW,288,0.0,0.0,45,0.00,,,0.00,meteohub,2013-05-27 00:42:00,
2013-05-26 20:47:00,65.5,44.2,30.20,WNW,288,0.0,0.0,46,0.00,,,0.00,meteohub,2013-05-27 00:47:00,
2013-05-26 20:52:00,65.3,44.1,30.20,WNW,288,0.0,0.0,46,0.00,,,0.00,meteohub,2013-05-27 00:52:00,
2013-05-26 20:57:00,65.1,43.9,30.20,WNW,288,0.0,0.0,46,0.00,,,0.00,meteohub,2013-05-27 00:57:00,
2013-05-26 21:02:00,64.9,43.7,30.21,WNW,288,0.0,0.0,46,0.00,,,0.00,meteohub,2013-05-27 01:02:00,
2013-05-26 21:07:00,64.8,45.1,30.20,WNW,288,0.0,0.0,49,0.00,,,0.00,meteohub,2013-05-27 01:07:00,
2013-05-26 21:12:00,64.8,45.7,30.20,WNW,288,0.0,0.0,50,0.00,,,0.00,meteohub,2013-05-27 01:12:00,
2013-05-26 21:17:00,64.6,45.0,30.21,WNW,288,0.0,0.0,49,0.00,,,0.00,meteohub,2013-05-27 01:17:00,
2013-05-26 21:22:00,64.6,45.5,30.21,WNW,288,0.0,0.0,50,0.00,,,0.00,meteohub,2013-05-27 01:22:00,
2013-05-26 21:27:00,64.4,45.9,30.21,WNW,288,0.0,0.0,51,0.00,,,0.00,meteohub,2013-05-27 01:27:00,
2013-05-26 21:32:00,64.4,46.4,30.21,WNW,288,0.0,0.0,52,0.00,,,0.00,meteohub,2013-05-27 01:32:00,
2013-05-26 21:37:00,64.2,44.6,30.21,WNW,288,0.0,0.0,49,0.00,,,0.00,meteohub,2013-05-27 01:37:00,
2013-05-26 21:42:00,64.2,44.6,30.21,WNW,288,0.0,0.0,49,0.00,,,0.00,meteohub,2013-05-27 01:42:00,
2013-05-26 21:47:00,64.2,44.6,30.21,WNW,288,0.0,0.0,49,0.00,,,0.00,meteohub,2013-05-27 01:47:00,
2013-05-26 21:52:00,64.2,44.1,30.21,WNW,288,0.0,0.0,48,0.00,,,0.00,meteohub,2013-05-27 01:52:00,
2013-05-26 21:57:00,64.2,44.1,30.21,WNW,288,0.0,0.0,48,0.00,,,0.00,meteohub,2013-05-27 01:57:00,
2013-05-26 22:02:00,64.0,43.9,30.21,WNW,288,0.0,0.0,48,0.00,,,0.00,meteohub,2013-05-27 02:02:00,
2013-05-26 22:07:00,64.0,45.0,30.21,WNW,288,0.0,0.0,50,0.00,,,0.00,meteohub,2013-05-27 02:07:00,
2013-05-26 22:12:00,64.0,45.5,30.22,WNW,288,0.0,0.0,51,0.00,,,0.00,meteohub,2013-05-27 02:12:00,
2013-05-26 22:17:00,64.0,46.6,30.22,WNW,288,0.0,0.0,53,0.00,,,0.00,meteohub,2013-05-27 02:17:00,
2013-05-26 22:22:00,63.9,47.3,30.22,WNW,288,0.0,0.0,55,0.00,,,0.00,meteohub,2013-05-27 02:22:00,
2013-05-26 22:27:00,63.9,47.8,30.22,WNW,288,0.0,0.0,56,0.00,,,0.00,meteohub,2013-05-27 02:27:00,
2013-05-26 22:32:00,63.7,48.2,30.22,WNW,288,0.0,0.0,57,0.00,,,0.00,meteohub,2013-05-27 02:32:00,
2013-05-26 22:37:00,63.7,49.5,30.22,WNW,288,0.0,0.0,60,0.00,,,0.00,meteohub,2013-05-27 02:37:00,
2013-05-26 22:42:00,63.7,50.0,30.22,WNW,288,0.0,0.0,61,0.00,,,0.00,meteohub,2013-05-27 02:42:00,
2013-05-26 22:47:00,63.5,49.8,30.22,WNW,288,0.0,0.0,61,0.00,,,0.00,meteohub,2013-05-27 02:47:00,
2013-05-26 22:52:00,63.3,50.0,30.22,WNW,288,0.0,0.0,62,0.00,,,0.00,meteohub,2013-05-27 02:52:00,
2013-05-26 22:57:00,63.1,50.4,30.22,WNW,288,0.0,0.0,63,0.00,,,0.00,meteohub,2013-05-27 02:57:00,
2013-05-26 23:02:00,63.1,50.7,30.23,WNW,288,0.0,0.0,64,0.00,,,0.00,meteohub,2013-05-27 03:02:00,
2013-05-26 23:07:00,63.0,50.5,30.23,WNW,288,0.0,0.0,64,0.00,,,0.00,meteohub,2013-05-27 03:07:00,
2013-05-26 23:12:00,63.0,51.1,30.23,WNW,288,0.0,0.0,65,0.00,,,0.00,meteohub,2013-05-27 03:12:00,
2013-05-26 23:17:00,62.8,51.3,30.23,WNW,288,0.0,0.0,66,0.00,,,0.00,meteohub,2013-05-27 03:17:00,
2013-05-26 23:22:00,62.8,51.3,30.23,WNW,288,0.0,0.0,66,0.00,,,0.00,meteohub,2013-05-27 03:22:00,
2013-05-26 23:27:00,62.6,51.1,30.23,WNW,288,0.0,0.0,66,0.00,,,0.00,meteohub,2013-05-27 03:27:00,
2013-05-26 23:32:00,62.4,50.9,30.23,WNW,288,0.0,0.0,66,0.00,,,0.00,meteohub,2013-05-27 03:32:00,
2013-05-26 23:37:00,62.2,50.7,30.23,WNW,288,0.0,0.0,66,0.00,,,0.00,meteohub,2013-05-27 03:37:00,
2013-05-26 23:42:00,62.2,50.7,30.23,WNW,288,0.0,0.0,66,0.00,,,0.00,meteohub,2013-05-27 03:42:00,
2013-05-26 23:47:00,62.1,50.9,30.23,WNW,288,0.0,0.0,67,0.00,,,0.00,meteohub,2013-05-27 03:47:00,
2013-05-26 23:52:00,62.1,50.5,30.23,WNW,288,0.0,0.0,66,0.00,,,0.00,meteohub,2013-05-27 03:52:00,
2013-05-26 23:57:00,62.1,50.5,30.22,WNW,288,0.0,0.0,66,0.00,,,0.00,meteohub,2013-05-27 03:57:00,